[[{"header":{"parameterUnit":"m.s-1","parameterCategory":1,"la1":30.2991,"la2":30.254,"lo1":-89.0895,"lo2":-89.0444,"dy":0.0017,"dx":0.0017,"nx":28,"ny":28,"refTime":"2024-04-15T21:00:00:Z","depth":0,"parameterNumber":2,"parameterNumberName":"U-component_of_WINDS"},"data":[0,0,0,0,0,0,0,0,0,0,0,0,0,0,0,0,0,0,0,0,0,0,0,0,0,0,0,0,0,0,0,0,0,0,0,0,0,0,0,0,0,0,0,0,0,0,0,0,0,0,0,0,0,0,0,0,0,0,-4.6989,-4.699,0,-4.7076,-4.7077,-4.7078,-4.7064,-4.7063,-4.7061,-4.706,-4.7146,-4.715,-4.7153,0,0,0,0,0,0,0,0,0,0,0,0,0,-4.681,-4.6813,-4.6989,-4.699,-4.6992,-4.7076,-4.7077,-4.7079,-4.7064,-4.7062,-4.7061,-4.7059,-4.7145,-4.7149,-4.7154,0,0,0,0,0,0,0,0,0,0,0,0,0,-4.6891,-4.6814,-4.6989,-4.6995,-4.6996,-4.7076,-4.7077,-4.7079,-4.7065,-4.7062,-4.706,-4.7058,-4.7143,-4.7149,-4.7154,-4.7233,0,0,-4.7171,-4.7174,0,0,0,0,0,0,0,0,-4.6887,-4.6898,-4.6993,-4.6995,-4.6996,-4.7057,-4.7046,-4.7131,-4.7065,-4.7039,-4.706,-4.7057,-4.7118,-4.7126,-4.7147,-4.7237,-4.7241,-4.7172,-4.7175,-4.7177,-4.7179,0,0,0,0,0,0,0,-4.6881,-4.6894,-4.7024,-4.6994,-4.6996,-4.6992,-4.7002,-4.7062,-4.709,-4.7041,-4.704,-4.7051,-4.7119,-4.7141,-4.7149,-4.7242,-4.7172,-4.7176,-4.718,-4.7182,-4.7402,-4.7404,0,0,0,0,0,0,-4.6874,-4.6889,-4.7021,-4.7026,-4.6935,-4.6997,-4.7008,-4.704,-4.7089,-4.7095,-4.7052,-4.705,-4.7133,-4.7142,-4.7152,-4.7246,-4.7177,-4.7183,-4.7186,-4.7399,-4.7402,-4.7405,0,0,0,0,0,0,-4.687,-4.6886,-4.7017,-4.6958,-4.6974,-4.7003,-4.7039,-4.7043,-4.7065,-4.7098,-4.7103,-4.707,-4.7132,-4.7144,-4.7213,-4.7249,-4.7185,-4.719,-4.7396,-4.74,-4.7404,-4.7436,0,0,0,0,0,0,-4.6865,-4.6885,-4.6915,-4.6959,-4.6977,-4.7078,-4.7041,-4.7046,-4.7075,-4.7072,-4.7116,-4.7121,-4.7131,-4.7205,-4.7219,-4.7255,-4.7194,-4.7393,-4.7398,-4.7403,-4.7432,-4.744,-4.7448,0,0,0,0,0,-4.6859,-4.692,-4.6917,-4.6933,-4.7016,-4.708,-4.7091,-4.7101,-4.7078,-4.7109,-4.713,-4.712,-4.7244,-4.7212,-4.7227,-4.7266,-4.7391,-4.7397,-4.7402,-4.7428,-4.7439,-4.7448,0,0,0,0,0,0,-4.6879,-4.6926,-4.6922,-4.7,-4.7036,-4.7077,-4.7116,-4.7112,-4.7154,-4.715,-4.7161,-4.7171,-4.7241,-4.7261,-4.7225,-4.7345,-4.7314,-4.7323,-4.7329,-4.7339,-4.7347,-4.7339,-4.7199,0,0,0,0,0,-4.6893,-4.6941,-4.698,-4.7044,-4.7063,-4.7087,-4.7115,-4.712,-4.7157,-4.7172,-4.7198,-4.7235,-4.7282,-4.7312,-4.7357,-4.7436,-4.7445,-4.7471,-4.7479,-4.7485,-4.7492,-4.7534,-4.7545,-4.7424,-4.7424,-4.7423,0,0,-4.6921,-4.6953,-4.6982,-4.7049,-4.7078,-4.7127,-4.7099,-4.7152,-4.7188,-4.718,-4.7246,-4.7268,-4.7309,-4.7383,-4.7417,-4.7402,-4.7528,-4.7492,-4.7497,-4.75,-4.7541,-4.7552,-4.7562,-4.7427,-4.7427,-4.7426,0,0,-4.6996,-4.7026,-4.7083,-4.7112,-4.7157,-4.7173,-4.7186,-4.7229,-4.7243,-4.731,-4.7305,-4.7348,-4.743,-4.7459,-4.7484,-4.7574,-4.7565,-4.7589,-4.7629,-4.767,-4.7679,-4.7688,-4.7717,-4.7728,-4.7596,-4.7596,-4.7596,0,-4.7024,-4.7099,-4.7112,-4.7166,-4.7195,-4.7192,-4.7249,-4.7277,-4.7333,-4.7353,-4.7337,-4.7439,-4.7466,-4.7547,-4.7569,-4.7591,-4.7605,-4.7581,-4.7677,-4.7686,-4.7694,-4.7722,-4.7734,-4.7598,-4.7598,-4.7598,-4.7597,0,-4.7131,-4.7183,-4.7223,-4.7278,-4.7313,-4.7368,-4.7389,-4.7422,-4.7426,-4.7443,-4.7512,-4.7546,-4.7597,-4.7618,-4.7621,-4.7699,-4.7688,-4.7675,-4.7642,-4.7707,-4.7734,-4.7745,-4.7601,-4.7601,-4.76,-4.7599,0,0,-4.7217,-4.7281,-4.7295,-4.732,-4.737,-4.741,-4.7466,-4.7517,-4.7545,-4.7585,-4.763,-4.7701,-4.7689,-4.7718,-4.7725,-4.7762,-4.7828,-4.7743,-4.7744,-4.7755,-4.7914,-4.7921,-4.7934,-4.7825,-4.7827,-4.7829,-4.7909,0,-4.7295,-4.7393,-4.7407,-4.7493,-4.754,-4.754,-4.7588,-4.7624,-4.7642,-4.7685,-4.7706,-4.7754,-4.7736,-4.7753,-4.779,-4.7812,-4.7859,-4.7807,-4.7865,-4.7867,-4.7851,-4.7948,-4.7956,-4.803,-4.792,-4.7922,-4.7923,0,-4.7398,-4.7441,-4.7532,-4.7576,-4.7596,-4.7639,-4.7688,-4.7729,-4.777,-4.7781,-4.7815,-4.7818,-4.7875,-4.7845,-4.7922,-4.7886,-4.7912,-4.7927,-4.793,-4.7932,-4.7896,-4.795,-4.8054,-4.8064,-4.794,-4.7939,-4.7938,0,-4.7448,-4.753,-4.7595,-4.7617,-4.767,-4.77,-4.7724,-4.7762,-4.7793,-4.7836,-4.7855,-4.7904,-4.793,-4.7968,-4.7984,-4.7961,-4.8061,-4.8032,-4.807,-4.8069,-4.8087,-4.8085,-4.8193,-4.811,-4.811,-4.811,-4.8109,0,-4.7531,-4.7586,-4.7618,-4.7657,-4.7719,-4.7736,-4.7796,-4.7819,-4.7854,-4.7897,-4.7901,-4.7941,-4.7962,-4.8006,-4.802,-4.8081,-4.8094,-4.8103,-4.8105,-4.8101,-4.8099,-4.8114,-4.8108,-4.8113,-4.8112,-4.8111,-4.8111,0,-4.7596,-4.762,-4.7689,-4.7736,-4.7748,-4.7791,-4.783,-4.7868,-4.7889,-4.7943,-4.7957,-4.7988,-4.804,-4.8061,-4.8125,-4.8134,-4.8204,-4.8204,-4.819,-4.8189,-4.8225,-4.8221,-4.8344,-4.836,-4.8269,-4.827,-4.8271,0,-4.7645,-4.7687,-4.7738,-4.7768,-4.7793,-4.7841,-4.7872,-4.7892,-4.7924,-4.7974,-4.8006,-4.8058,-4.81,-4.8184,-4.8211,-4.826,-4.8259,-4.8299,-4.8266,-4.826,-4.8256,-4.8252,-4.8255,-4.8304,-4.8305,-4.8305,-4.8306,0,-4.7729,-4.774,-4.7785,-4.7835,-4.7872,-4.7912,-4.7951,-4.7975,-4.8001,-4.8037,-4.8091,-4.8124,-4.8189,-4.824,-4.8291,-4.8315,-4.8314,-4.8317,-4.8328,-4.8321,-4.831,-4.8314,-4.8202,-4.8313,-4.8312,-4.8312,-4.8311,-4.8311,-4.7786,-4.7823,-4.7865,-4.7915,-4.7947,-4.7984,-4.8022,-4.8047,-4.8092,-4.8147,-4.8157,-4.8214,-4.8254,-4.8323,-4.8349,-4.8393,-4.8383,-4.8399,-4.8403,-4.8406,-4.8406,-4.8307,-4.8403,-4.8403,-4.8403,-4.8403,-4.8402,0,-4.7868,-4.7895,-4.7942,-4.7997,-4.8036,-4.8035,-4.8079,-4.8111,-4.8162,-4.82,-4.8242,-4.8304,-4.8354,-4.8387,-4.8438,-4.8467,-4.8468,-4.8479,-4.8475,-4.8481,-4.8414,-4.8398,-4.8478,-4.8478,-4.8478,-4.8478,-4.8478,-4.8478,-4.7915,-4.7977,-4.7993,-4.8071,-4.8099,-4.8154,-4.8179,-4.8213,-4.8244,-4.8313,-4.8355,-4.8377,-4.8413,-4.8467,-4.8513,-4.8521,-4.8538,-4.855,-4.8557,-4.8493,-4.8485,-4.8478,-4.8463,-4.8554,-4.8554,-4.8619,-4.862,-4.862]},{"header":{"parameterUnit":"m.s-1","parameterCategory":1,"la1":30.2991,"la2":30.254,"lo1":-89.0895,"lo2":-89.0444,"dy":0.0017,"dx":0.0017,"nx":28,"ny":28,"refTime":"2024-04-15T21:00:00:Z","depth":0,"parameterNumber":3,"parameterNumberName":"V-component_of_WINDS"},"data":[0,0,0,0,0,0,0,0,0,0,0,0,0,0,0,0,0,0,0,0,0,0,0,0,0,0,0,0,0,0,0,0,0,0,0,0,0,0,0,0,0,0,0,0,0,0,0,0,0,0,0,0,0,0,0,0,0,0,3.4111,3.4111,0,3.4147,3.4147,3.4147,3.4158,3.4157,3.4157,3.4157,3.4191,3.4192,3.4194,0,0,0,0,0,0,0,0,0,0,0,0,0,3.4052,3.4053,3.4111,3.4112,3.4112,3.4147,3.4147,3.4148,3.4158,3.4157,3.4157,3.4157,3.4191,3.4192,3.4194,0,0,0,0,0,0,0,0,0,0,0,0,0,3.4082,3.4054,3.4111,3.4121,3.4123,3.4147,3.4147,3.4148,3.4158,3.4157,3.4157,3.4157,3.4191,3.4192,3.4194,3.421,0,0,3.4199,3.42,0,0,0,0,0,0,0,0,3.408,3.4084,3.4119,3.4121,3.4122,3.4147,3.4139,3.4168,3.4158,3.4144,3.4157,3.4157,3.4177,3.418,3.4187,3.4211,3.4213,3.4199,3.42,3.4201,3.4201,0,0,0,0,0,0,0,3.4078,3.4082,3.4125,3.412,3.4121,3.4124,3.4128,3.4145,3.4162,3.4145,3.4146,3.415,3.4178,3.4185,3.4188,3.4213,3.4199,3.42,3.4201,3.4202,3.4255,3.4256,0,0,0,0,0,0,3.4074,3.4081,3.4124,3.4126,3.41,3.4125,3.413,3.414,3.4162,3.4165,3.4151,3.4151,3.4183,3.4186,3.4189,3.4211,3.4201,3.4202,3.4203,3.4255,3.4255,3.4256,0,0,0,0,0,0,3.4073,3.4078,3.4123,3.4104,3.411,3.4127,3.4138,3.414,3.4148,3.4166,3.4169,3.4155,3.4183,3.4187,3.4205,3.4212,3.4203,3.4204,3.4254,3.4255,3.4256,3.4253,0,0,0,0,0,0,3.4071,3.4078,3.4083,3.4104,3.4111,3.4138,3.4138,3.4141,3.4151,3.4152,3.4171,3.4174,3.4183,3.4203,3.4207,3.4214,3.4206,3.4254,3.4255,3.4255,3.4252,3.4253,3.4254,0,0,0,0,0,3.4069,3.408,3.4084,3.4089,3.4118,3.4138,3.4142,3.4153,3.4152,3.4158,3.417,3.4173,3.4211,3.4205,3.4209,3.4217,3.4253,3.4254,3.4255,3.4252,3.4253,3.4254,0,0,0,0,0,0,3.4058,3.4083,3.4087,3.4105,3.412,3.414,3.4148,3.4153,3.4168,3.4168,3.418,3.4184,3.4202,3.4212,3.4204,3.4235,3.4232,3.4234,3.4228,3.4229,3.423,3.4227,3.4207,0,0,0,0,0,3.4058,3.4073,3.4093,3.4107,3.4115,3.413,3.4139,3.4147,3.4162,3.4168,3.4181,3.4196,3.4211,3.4221,3.4236,3.4254,3.4259,3.4262,3.4263,3.4264,3.4265,3.4278,3.428,3.4259,3.4259,3.4259,0,0,3.4058,3.4073,3.4081,3.4106,3.4118,3.4133,3.4135,3.415,3.4162,3.417,3.4189,3.4199,3.4217,3.4236,3.4245,3.4244,3.4272,3.4265,3.4265,3.4266,3.4279,3.4281,3.4282,3.426,3.426,3.4259,0,0,3.4065,3.4077,3.4091,3.4105,3.4124,3.4135,3.4138,3.4159,3.4166,3.4186,3.4193,3.4207,3.4233,3.4246,3.4255,3.4271,3.4275,3.4276,3.428,3.4292,3.4294,3.4295,3.4302,3.4304,3.4277,3.4277,3.4277,0,3.4061,3.4085,3.4098,3.4114,3.4125,3.4135,3.415,3.4162,3.4185,3.4192,3.4191,3.4226,3.4238,3.4262,3.4266,3.4273,3.4278,3.4273,3.4292,3.4294,3.4296,3.4302,3.4305,3.4277,3.4277,3.4277,3.4277,0,3.408,3.4097,3.4106,3.413,3.4142,3.4157,3.4173,3.4184,3.4191,3.4203,3.4224,3.4239,3.4258,3.4265,3.4271,3.429,3.4289,3.429,3.4288,3.4297,3.4304,3.4307,3.4277,3.4277,3.4277,3.4277,0,0,3.4079,3.4113,3.4116,3.4128,3.4151,3.4164,3.4181,3.4201,3.4211,3.4227,3.4242,3.4266,3.4268,3.4279,3.4287,3.4298,3.4312,3.4298,3.4299,3.4301,3.4335,3.4334,3.4337,3.4315,3.4316,3.4316,3.4334,0,3.409,3.412,3.4134,3.4158,3.4175,3.4186,3.4201,3.4218,3.4229,3.4245,3.4258,3.4275,3.4275,3.4283,3.4294,3.4307,3.4319,3.4306,3.4329,3.433,3.4325,3.434,3.4339,3.4355,3.4337,3.4337,3.4337,0,3.4105,3.4124,3.415,3.4175,3.4182,3.4195,3.4216,3.4231,3.4251,3.4259,3.4273,3.4282,3.4301,3.4298,3.4324,3.4316,3.4326,3.4335,3.4336,3.4338,3.4334,3.4344,3.436,3.4363,3.4341,3.4341,3.4341,0,3.4103,3.4134,3.4155,3.4165,3.4194,3.4203,3.4215,3.4235,3.4247,3.4266,3.4274,3.4294,3.4305,3.4321,3.4335,3.4332,3.4361,3.4359,3.4369,3.4369,3.4374,3.4373,3.4393,3.438,3.438,3.438,3.438,0,3.4113,3.4129,3.4155,3.4167,3.4186,3.4203,3.4221,3.4234,3.4252,3.4268,3.4279,3.4294,3.4312,3.4329,3.434,3.4362,3.4366,3.4374,3.4376,3.4373,3.4372,3.4379,3.4379,3.4381,3.4381,3.4381,3.438,0,3.4113,3.4131,3.4155,3.4181,3.4188,3.4201,3.4224,3.4237,3.4251,3.4271,3.4277,3.4298,3.4319,3.4335,3.4362,3.437,3.4393,3.4395,3.4386,3.4388,3.4397,3.4396,3.4422,3.4427,3.4411,3.4411,3.4411,0,3.4118,3.4132,3.4161,3.4173,3.4186,3.4204,3.4218,3.4236,3.4249,3.4275,3.4285,3.4307,3.4326,3.436,3.4377,3.4398,3.4402,3.441,3.4405,3.4402,3.4403,3.4402,3.4404,3.441,3.441,3.441,3.441,0,3.4126,3.4136,3.4155,3.4178,3.4195,3.4213,3.4232,3.4242,3.4263,3.4278,3.43,3.4315,3.4344,3.4367,3.439,3.4403,3.4411,3.4412,3.4416,3.4412,3.4407,3.4411,3.4388,3.4411,3.4411,3.4411,3.4411,3.4411,3.413,3.4143,3.4166,3.4188,3.4205,3.4223,3.4238,3.4255,3.4274,3.43,3.4309,3.4333,3.4355,3.4388,3.4402,3.4421,3.4421,3.4425,3.4427,3.4428,3.4428,3.4404,3.4425,3.4425,3.4425,3.4425,3.4425,0,3.4139,3.4156,3.4176,3.4203,3.4221,3.4229,3.4251,3.4265,3.4286,3.4307,3.4326,3.4353,3.4376,3.4396,3.442,3.4432,3.4436,3.4437,3.4437,3.444,3.4426,3.4421,3.4434,3.4434,3.4434,3.4434,3.4434,3.4434,3.4146,3.4169,3.4182,3.4214,3.4231,3.4255,3.4267,3.4285,3.4302,3.4332,3.4352,3.4366,3.4387,3.4413,3.4434,3.444,3.4448,3.4449,3.4455,3.4442,3.4441,3.444,3.4435,3.445,3.4451,3.4468,3.4468,3.4468]}]]